******** Week 144 almanac for PRN-1 ******** ID: 1 Health: 0 Eccentricity: 0.01124763489 Time of Applicability(s): 233472 Orbital Inclination(rad): 0.9864419251 Rate of Right Ascen(r/s): -7.668890868e-09 SQRT(A) (m 1/2): 5153.630371 Right Ascen at Week(rad): -1.284901782 Argument of Perigee(rad): 0.8826580135 Mean Anom(rad): 2.301129225 Af0(s): 0.0003632710205 Af1(s/s): -1.091394e-11 week: 144 ******** Week 144 almanac for PRN-2 ******** ID: 2 Health: 0 Eccentricity: 0.02066850662 Time of Applicability(s): 233472 Orbital Inclination(rad): 0.9647804386 Rate of Right Ascen(r/s): -7.851755628e-09 SQRT(A) (m 1/2): 5153.626465 Right Ascen at Week(rad): -1.373477562 Argument of Perigee(rad): -1.459099232 Mean Anom(rad): 2.465686864 Af0(s): -0.0005124985352 Af1(s/s): 0 week: 144 ******** Week 144 almanac for PRN-3 ******** ID: 3 Health: 0 Eccentricity: 0.003860473633 Time of Applicability(s): 233472 Orbital Inclination(rad): 0.9724683189 Rate of Right Ascen(r/s): -7.703178011e-09 SQRT(A) (m 1/2): 5153.652832 Right Ascen at Week(rad): -0.2494939608 Argument of Perigee(rad): 0.9785280677 Mean Anom(rad): 1.132401771 Af0(s): -5.878659668e-05 Af1(s/s): -1.455192e-11 week: 144 ******** Week 144 almanac for PRN-4 ******** ID: 4 Health: 0 Eccentricity: 0.00164604187 Time of Applicability(s): 233472 Orbital Inclination(rad): 0.9609215182 Rate of Right Ascen(r/s): -7.886042771e-09 SQRT(A) (m 1/2): 5153.60498 Right Ascen at Week(rad): 0.831346431 Argument of Perigee(rad): -3.107612883 Mean Anom(rad): -2.157766811 Af0(s): -0.0001545032349 Af1(s/s): 0 week: 144 ******** Week 144 almanac for PRN-5 ******** ID: 5 Health: 0 Eccentricity: 0.005897521973 Time of Applicability(s): 233472 Orbital Inclination(rad): 0.9594474585 Rate of Right Ascen(r/s): -7.828897533e-09 SQRT(A) (m 1/2): 5153.595703 Right Ascen at Week(rad): -0.289413414 Argument of Perigee(rad): 1.013597655 Mean Anom(rad): -1.336974737 Af0(s): -5.351087646e-05 Af1(s/s): 0 week: 144 ******** Week 144 almanac for PRN-6 ******** ID: 6 Health: 0 Eccentricity: 0.002613067627 Time of Applicability(s): 233472 Orbital Inclination(rad): 0.9858307297 Rate of Right Ascen(r/s): -7.657461821e-09 SQRT(A) (m 1/2): 5153.60791 Right Ascen at Week(rad): -1.293171271 Argument of Perigee(rad): -1.003521918 Mean Anom(rad): 2.672613607 Af0(s): 0.0001326466797 Af1(s/s): 1.091394e-11 week: 144 ******** Week 144 almanac for PRN-7 ******** ID: 7 Health: 0 Eccentricity: 0.01542282104 Time of Applicability(s): 233472 Orbital Inclination(rad): 0.9506570296 Rate of Right Ascen(r/s): -7.851755628e-09 SQRT(A) (m 1/2): 5153.651367 Right Ascen at Week(rad): 1.85091635 Argument of Perigee(rad): -2.296703301 Mean Anom(rad): 1.641015272 Af0(s): 0.0002374074097 Af1(s/s): 3.637979e-12 week: 144 ******** Week 144 almanac for PRN-8 ******** ID: 8 Health: 0 Eccentricity: 0.007107257843 Time of Applicability(s): 233472 Orbital Inclination(rad): 0.9651879023 Rate of Right Ascen(r/s): -8.080336578e-09 SQRT(A) (m 1/2): 5153.654297 Right Ascen at Week(rad): -2.364388705 Argument of Perigee(rad): 0.07721136504 Mean Anom(rad): -1.679491749 Af0(s): -4.069841309e-05 Af1(s/s): 0 week: 144 ******** Week 144 almanac for PRN-9 ******** ID: 9 Health: 0 Eccentricity: 0.00234079361 Time of Applicability(s): 233472 Orbital Inclination(rad): 0.9539347151 Rate of Right Ascen(r/s): -7.977475151e-09 SQRT(A) (m 1/2): 5153.581055 Right Ascen at Week(rad): 0.7786667744 Argument of Perigee(rad): 1.859004203 Mean Anom(rad): -1.353371403 Af0(s): -0.000283381543 Af1(s/s): 0 week: 144 ******** Week 144 almanac for PRN-10 ******** ID: 10 Health: 0 Eccentricity: 0.007423400879 Time of Applicability(s): 233472 Orbital Inclination(rad): 0.9723065319 Rate of Right Ascen(r/s): -7.714607058e-09 SQRT(A) (m 1/2): 5153.630859 Right Ascen at Week(rad): -0.2522911538 Argument of Perigee(rad): -2.539195104 Mean Anom(rad): 0.2963234432 Af0(s): -0.0002298706665 Af1(s/s): -1.091394e-11 week: 144 ******** Week 144 almanac for PRN-11 ******** ID: 11 Health: 255 Eccentricity: 0.0003080368042 Time of Applicability(s): 233472 Orbital Inclination(rad): 0.9615566821 Rate of Right Ascen(r/s): -7.897471818e-09 SQRT(A) (m 1/2): 5153.711426 Right Ascen at Week(rad): -1.240302863 Argument of Perigee(rad): 2.820891426 Mean Anom(rad): -1.79047878 Af0(s): -2.637860107e-05 Af1(s/s): -3.637979e-11 week: 144 ******** Week 144 almanac for PRN-12 ******** ID: 12 Health: 0 Eccentricity: 0.008561611175 Time of Applicability(s): 233472 Orbital Inclination(rad): 0.9710661646 Rate of Right Ascen(r/s): -7.806039438e-09 SQRT(A) (m 1/2): 5153.57666 Right Ascen at Week(rad): 2.96320522 Argument of Perigee(rad): 1.236888857 Mean Anom(rad): 0.9740759282 Af0(s): -0.0001220952393 Af1(s/s): -7.275958e-12 week: 144 ******** Week 144 almanac for PRN-13 ******** ID: 13 Health: 0 Eccentricity: 0.005787849426 Time of Applicability(s): 233472 Orbital Inclination(rad): 0.9683277692 Rate of Right Ascen(r/s): -7.806039438e-09 SQRT(A) (m 1/2): 5153.619629 Right Ascen at Week(rad): 0.9309686712 Argument of Perigee(rad): 0.9728003572 Mean Anom(rad): -2.301088029 Af0(s): 0.000192940625 Af1(s/s): 7.275958e-12 week: 144 ******** Week 144 almanac for PRN-14 ******** ID: 14 Health: 0 Eccentricity: 0.001319408417 Time of Applicability(s): 233472 Orbital Inclination(rad): 0.9544680131 Rate of Right Ascen(r/s): -7.966046103e-09 SQRT(A) (m 1/2): 5153.596191 Right Ascen at Week(rad): 2.932477293 Argument of Perigee(rad): 3.045733461 Mean Anom(rad): 1.009512907 Af0(s): -5.50182251e-05 Af1(s/s): -3.637979e-12 week: 144 ******** Week 144 almanac for PRN-15 ******** ID: 15 Health: 0 Eccentricity: 0.01391744614 Time of Applicability(s): 233472 Orbital Inclination(rad): 0.9298404309 Rate of Right Ascen(r/s): -8.240343243e-09 SQRT(A) (m 1/2): 5153.658203 Right Ascen at Week(rad): 0.6735291693 Argument of Perigee(rad): 1.069960588 Mean Anom(rad): -2.695523325 Af0(s): -7.310640869e-05 Af1(s/s): 3.637979e-12 week: 144 ******** Week 144 almanac for PRN-16 ******** ID: 16 Health: 0 Eccentricity: 0.01261997223 Time of Applicability(s): 233472 Orbital Inclination(rad): 0.9710421961 Rate of Right Ascen(r/s): -7.817468486e-09 SQRT(A) (m 1/2): 5153.541504 Right Ascen at Week(rad): 2.981835821 Argument of Perigee(rad): 0.6961595055 Mean Anom(rad): -0.8823730137 Af0(s): -0.0003587489746 Af1(s/s): -3.637979e-12 week: 144 ******** Week 144 almanac for PRN-17 ******** ID: 17 Health: 0 Eccentricity: 0.0137348175 Time of Applicability(s): 233472 Orbital Inclination(rad): 0.9802161203 Rate of Right Ascen(r/s): -7.920329913e-09 SQRT(A) (m 1/2): 5153.690918 Right Ascen at Week(rad): -2.283006081 Argument of Perigee(rad): -1.51019772 Mean Anom(rad): -1.776012697 Af0(s): 0.0004424068237 Af1(s/s): 3.637979e-12 week: 144 ******** Week 144 almanac for PRN-18 ******** ID: 18 Health: 0 Eccentricity: 0.002091884613 Time of Applicability(s): 233472 Orbital Inclination(rad): 0.9702272688 Rate of Right Ascen(r/s): -7.806039438e-09 SQRT(A) (m 1/2): 5153.584473 Right Ascen at Week(rad): -1.276564506 Argument of Perigee(rad): 3.106527187 Mean Anom(rad): 2.490648506 Af0(s): 0.0002080141113 Af1(s/s): -7.275958e-12 week: 144 ******** Week 144 almanac for PRN-19 ******** ID: 19 Health: 0 Eccentricity: 0.008924484253 Time of Applicability(s): 233472 Orbital Inclination(rad): 0.978921824 Rate of Right Ascen(r/s): -7.943188008e-09 SQRT(A) (m 1/2): 5153.630371 Right Ascen at Week(rad): -2.23808209 Argument of Perigee(rad): 1.995108297 Mean Anom(rad): 0.6198435867 Af0(s): 8.215050049e-05 Af1(s/s): 3.637979e-12 week: 144 ******** Week 144 almanac for PRN-20 ******** ID: 20 Health: 0 Eccentricity: 0.005312919617 Time of Applicability(s): 233472 Orbital Inclination(rad): 0.9415969555 Rate of Right Ascen(r/s): -8.000333246e-09 SQRT(A) (m 1/2): 5153.669434 Right Ascen at Week(rad): -0.4027583406 Argument of Perigee(rad): 3.097306824 Mean Anom(rad): -2.915584404 Af0(s): 0.0004084914795 Af1(s/s): 0 week: 144 ******** Week 144 almanac for PRN-21 ******** ID: 21 Health: 0 Eccentricity: 0.02449607849 Time of Applicability(s): 233472 Orbital Inclination(rad): 0.9590160264 Rate of Right Ascen(r/s): -7.897471818e-09 SQRT(A) (m 1/2): 5153.549316 Right Ascen at Week(rad): -1.374886832 Argument of Perigee(rad): -1.028310538 Mean Anom(rad): -1.62038368 Af0(s): 0.0001228489136 Af1(s/s): 0 week: 144 ******** Week 144 almanac for PRN-22 ******** ID: 22 Health: 255 Eccentricity: 0.006878376007 Time of Applicability(s): 233472 Orbital Inclination(rad): 0.9383372464 Rate of Right Ascen(r/s): -8.011762293e-09 SQRT(A) (m 1/2): 5153.580566 Right Ascen at Week(rad): -0.3569647447 Argument of Perigee(rad): -0.8580214432 Mean Anom(rad): -2.884668475 Af0(s): -0.0003316166992 Af1(s/s): 7.275958e-12 week: 144 ******** Week 144 almanac for PRN-23 ******** ID: 23 Health: 0 Eccentricity: 0.001955032349 Time of Applicability(s): 233472 Orbital Inclination(rad): 0.9673390706 Rate of Right Ascen(r/s): -7.760323248e-09 SQRT(A) (m 1/2): 5153.648438 Right Ascen at Week(rad): -0.2769610553 Argument of Perigee(rad): 2.906482386 Mean Anom(rad): 1.650725115 Af0(s): 9.797766113e-06 Af1(s/s): -3.637979e-12 week: 144 ******** Week 144 almanac for PRN-24 ******** ID: 24 Health: 0 Eccentricity: 0.01227045059 Time of Applicability(s): 233472 Orbital Inclination(rad): 0.9341008229 Rate of Right Ascen(r/s): -8.034620388e-09 SQRT(A) (m 1/2): 5153.641113 Right Ascen at Week(rad): 1.768738272 Argument of Perigee(rad): 0.8003758233 Mean Anom(rad): 2.607385343 Af0(s): 0.0002193192261 Af1(s/s): 0 week: 144 ******** Week 144 almanac for PRN-25 ******** ID: 25 Health: 0 Eccentricity: 0.01034355164 Time of Applicability(s): 233472 Orbital Inclination(rad): 0.9584527679 Rate of Right Ascen(r/s): -7.908900866e-09 SQRT(A) (m 1/2): 5153.678711 Right Ascen at Week(rad): 2.886941732 Argument of Perigee(rad): 0.971216567 Mean Anom(rad): 0.7457416145 Af0(s): 0.0002125361572 Af1(s/s): 7.275958e-12 week: 144 ******** Week 144 almanac for PRN-26 ******** ID: 26 Health: 0 Eccentricity: 0.006755828857 Time of Applicability(s): 233472 Orbital Inclination(rad): 0.9392899923 Rate of Right Ascen(r/s): -8.103194673e-09 SQRT(A) (m 1/2): 5153.630371 Right Ascen at Week(rad): 2.840622703 Argument of Perigee(rad): 0.3466500722 Mean Anom(rad): 0.09787965893 Af0(s): 0.0001371687256 Af1(s/s): 3.637979e-12 week: 144 ******** Week 144 almanac for PRN-27 ******** ID: 27 Health: 0 Eccentricity: 0.009996414185 Time of Applicability(s): 233472 Orbital Inclination(rad): 0.973858489 Rate of Right Ascen(r/s): -7.988904198e-09 SQRT(A) (m 1/2): 5153.600586 Right Ascen at Week(rad): -2.345245404 Argument of Perigee(rad): 0.6289665779 Mean Anom(rad): -1.755362379 Af0(s): 4.898883057e-05 Af1(s/s): 2.182787e-11 week: 144 ******** Week 144 almanac for PRN-29 ******** ID: 29 Health: 0 Eccentricity: 0.001758098602 Time of Applicability(s): 233472 Orbital Inclination(rad): 0.9822055016 Rate of Right Ascen(r/s): -7.920329913e-09 SQRT(A) (m 1/2): 5153.719727 Right Ascen at Week(rad): -2.270067986 Argument of Perigee(rad): 2.297720836 Mean Anom(rad): -1.652604766 Af0(s): -0.0003685467407 Af1(s/s): -3.637979e-12 week: 144 ******** Week 144 almanac for PRN-30 ******** ID: 30 Health: 0 Eccentricity: 0.005413532257 Time of Applicability(s): 233472 Orbital Inclination(rad): 0.9358325434 Rate of Right Ascen(r/s): -7.988904198e-09 SQRT(A) (m 1/2): 5153.537598 Right Ascen at Week(rad): 1.864594844 Argument of Perigee(rad): -2.753183926 Mean Anom(rad): 1.651744898 Af0(s): -0.000400201062 Af1(s/s): -3.637979e-12 week: 144 ******** Week 144 almanac for PRN-31 ******** ID: 31 Health: 0 Eccentricity: 0.01046133041 Time of Applicability(s): 233472 Orbital Inclination(rad): 0.9549054373 Rate of Right Ascen(r/s): -7.783181343e-09 SQRT(A) (m 1/2): 5153.620605 Right Ascen at Week(rad): 1.86887546 Argument of Perigee(rad): 0.3652334854 Mean Anom(rad): 1.188880801 Af0(s): -0.0001258636108 Af1(s/s): 0 week: 144 ******** Week 144 almanac for PRN-32 ******** ID: 32 Health: 0 Eccentricity: 0.005407810211 Time of Applicability(s): 233472 Orbital Inclination(rad): 0.9577936355 Rate of Right Ascen(r/s): -7.920329913e-09 SQRT(A) (m 1/2): 5153.703125 Right Ascen at Week(rad): 0.7897154807 Argument of Perigee(rad): -2.376570295 Mean Anom(rad): -1.069101095 Af0(s): -3.843739014e-05 Af1(s/s): -7.275958e-12 week: 144